#timestamp,LO_Frequency,Hit 
1499407215.2,286047001.6,N
1499407235.0,286047004.4,N
1499407235.9,286047004.4,N
1499407255.8,286047001.4,N
1499407275.6,286047001.7,N
1499407295.4,286047001.9,N
1499407315.3,286047004.3,N
1499407335.1,286047002.3,N
1499407355.8,286047002.7,N
1499407375.7,286047002.5,N
1499407395.5,286047002.5,N
1499407415.4,286047002.8,N
1499407435.2,286047002.6,N
1499407455.0,286046999.7,N
1499407455.9,286046999.7,N
1499407475.8,286046999.9,N
1499407495.6,286047002.7,N
1499407515.4,286047000.0,N
1499407535.3,286047000.7,N
1499407555.1,286046998.1,N
1499407575.9,286047000.7,N
1499407595.7,286046999.9,N
1499407615.5,286046998.3,N
1499407635.4,286046998.5,N
1499407655.2,286046998.7,N
1499407675.0,286046999.5,N
1499407675.9,286046999.5,N
1499407695.8,286046996.7,N
1499407715.6,286046998.7,N
1499407735.5,286046999.4,N
1499407755.3,286046999.3,N
1499407775.1,286046999.0,N
1499407795.9,286046997.2,N
1499407815.7,286046996.7,N
1499407835.5,286046997.1,N
1499407855.4,286046997.2,N
1499407875.2,286046997.3,N
1499407895.1,286046999.5,N
1499407896.0,286046999.5,N
1499407915.8,286046998.4,N
1499407935.6,286047000.7,N
1499407955.5,286047002.8,N
1499407975.3,286047000.9,N
1499407995.2,286047002.3,N
1499408015.9,286047001.6,N
1499408035.7,286047002.4,N
1499408055.6,286047000.9,N
1499408075.4,286047002.2,N
1499408095.2,286047002.8,N
1499408115.1,286047001.6,N
1499408116.0,286047001.6,N
1499408135.8,286047002.6,N
1499408155.7,286047000.7,N
1499408175.5,286046998.7,N
1499408195.4,286046999.5,N
1499408215.2,286046998.9,N
1499408235.0,286046999.8,N
1499408235.9,286046999.8,N
1499408255.8,286047000.1,N
1499408275.6,286047002.6,N
1499408295.5,286047002.1,N
1499408315.3,286047001.9,N
1499408335.1,286047001.9,N
1499408355.9,286047001.8,N
1499408375.7,286047003.3,N
1499408395.6,286047003.6,N
1499408415.4,286047003.4,N
1499408435.2,286047003.8,N
1499408455.1,286047003.9,N
1499408456.0,286047003.9,N
1499408475.8,286047004.4,N
1499408495.7,286047004.2,N
1499408515.5,286047003.2,N
1499408535.3,286047003.9,N
1499408555.2,286047001.5,N
1499408575.0,286047001.3,N
1499408575.9,286047001.3,N
1499408595.7,286047001.9,N
1499408615.6,286047002.7,N
1499408635.4,286047001.5,N
1499408655.3,286047004.3,N
1499408675.1,286047003.8,N
1499408676.0,286047003.8,N
1499408695.8,286047002.6,N
1499408715.7,286047002.2,N
1499408735.5,286047002.1,N
1499408755.3,286047001.3,N
1499408775.2,286047004.3,N
1499408795.0,286047004.1,N
1499408795.9,286047004.1,N
1499408815.8,286047003.9,N
1499408835.6,286047004.1,N
1499408855.5,286047004.2,N
1499408875.3,286047003.6,N
1499408895.1,286047001.6,N
1499408915.9,286047004.4,N
1499408935.7,286047002.0,N
1499408955.5,286047001.7,N
1499408975.4,286047002.5,N
1499408995.2,286047002.5,N
1499409015.1,286047001.5,N
1499409016.0,286047001.5,N
1499409035.8,286047001.3,N
1499409055.6,286047003.2,N
1499409075.5,286047006.0,N
1499409095.3,286047003.4,N
1499409115.2,286047005.1,N
1499409135.9,286047004.6,N
1499409155.7,286047005.4,N
1499409175.6,286047005.7,N
1499409195.4,286047005.2,N
1499409215.2,286047006.8,N
1499409235.1,286047009.1,N
1499409236.0,286047009.1,N
1499409255.8,286047006.7,N
1499409275.7,286047006.9,N
1499409295.5,286047009.2,N
1499409315.3,286047007.0,N
1499409335.2,286047004.9,N
1499409355.0,286047006.7,N
1499409355.9,286047006.7,N
1499409375.7,286047006.0,N
1499409395.6,286047003.7,N
1499409415.4,286047004.0,N
1499409435.3,286047004.2,N
1499409455.1,286047005.7,N
1499409456.0,286047005.7,N
1499409475.8,286047006.0,N
1499409495.7,286047006.6,N
1499409515.5,286047006.1,N
1499409535.3,286047006.1,N
1499409555.2,286047009.2,N
1499409575.0,286047009.1,N
1499409575.9,286047009.1,N
1499409595.8,286047007.9,N
1499409615.6,286047008.9,N
1499409635.4,286047008.8,N
1499409655.8,286047006.2,N
1499409675.6,286047006.2,N
1499409695.5,286047008.2,N
1499409715.3,286047008.0,N
1499409735.2,286047008.6,N
1499409755.9,286047010.8,N
1499409775.7,286047007.8,N
1499409795.6,286047009.1,N
1499409815.4,286047008.0,N
1499409835.2,286047006.1,N
1499409855.1,286047007.6,N
1499409856.0,286047007.6,N
1499409875.8,286047004.9,N
1499409895.7,286047004.6,N
1499409915.5,286047004.9,N
1499409935.3,286047007.4,N
1499409955.2,286047006.5,N
1499409975.0,286047009.2,N
1499409975.9,286047009.2,N
1499409995.8,286047007.0,N
1499410015.6,286047009.0,N
1499410035.4,286047007.8,N
1499410055.3,286047006.7,N
1499410075.1,286047004.6,N
1499410095.8,286047005.9,N
1499410115.7,286047005.1,N
1499410135.5,286047005.7,N
1499410155.4,286047004.8,N
1499410175.2,286047003.0,N
1499410195.0,286047006.0,N
1499410195.9,286047006.0,N
1499410215.8,286047005.5,N
1499410235.6,286047004.9,N
1499410255.4,286047005.4,N
1499410275.3,286047004.9,N
1499410295.1,286047006.6,N
1499410315.9,286047006.7,N
1499410335.7,286047007.3,N
1499410355.5,286047006.8,N
1499410375.4,286047008.4,N
1499410395.2,286047009.2,N
1499410415.0,286047008.6,N
1499410415.9,286047008.6,N
1499410435.8,286047009.1,N
1499410455.6,286047006.5,N
1499410475.5,286047006.7,N
1499410495.3,286047008.8,N
1499410515.1,286047008.0,N
1499410535.9,286047008.4,N
1499410555.7,286047007.3,N
1499410575.5,286047007.4,N
1499410595.4,286047004.7,N
1499410615.2,286047005.4,N
1499410635.1,286047005.2,N
1499410636.0,286047005.2,N
1499410655.8,286047005.9,N
1499410675.6,286047005.9,N
1499410695.5,286047007.5,N
1499410715.3,286047005.8,N
1499410735.2,286047005.0,N
1499410755.9,286047005.3,N
1499410775.7,286047003.1,N
1499410795.6,286047003.4,N
